Terminal Aerodrome Forecast
Issued by NWS Louisville, KY

Home | Current Version | Previous Version | Text Only | Print | Product List | Glossary On
Versions: 1 2 3 4 5 6 7 8 9 10 11 12 13 14 15 16 17 18 19 20 21 22
000
FTUS43 KLMK 180500
TAFSDF
TAF
KSDF 180520Z 1806/1912 02003KT P6SM SCT060 BKN150
     FM180900 VRB03KT P6SM BKN050
     FM181500 05005KT P6SM SCT050=

USA.gov is the U.S. government's official web portal to all federal, state and local government web resources and services.